Tracking 23611 objects as of 18-Sep-2021
HD Live streaming from Space Station
objects crossing your sky now
Track INSPIRATION-4

FLOCK 1C 1

Track FLOCK 1C 1 now!
10-day predictions
FLOCK 1C 1 is classified as:


NORAD ID: 40027
Int'l Code: 2014-033T
Perigee: 594.4 km
Apogee: 609.8 km
Inclination: 98.0 °
Period: 96.6 minutes
Semi major axis: 6973 km
RCS: Unknown
Launch date: June 19, 2014
Source: United States (US)
Launch site: Orenburg, Russia (OREN)
aabbcc
Your satellite tracking list
Your tracking list is empty




NASA's NSSDC Master Catalog

Two Line Element Set (TLE):
1 40027U 14033T   21260.58144206  .00001143  00000-0  12164-3 0  9991
2 40027  97.9708 199.2342 0011044 227.1950 132.8340 14.90941712393274
Source of the keplerian elements: AFSPC